Location: Newark
(45.2500°N, 7.5833°E)
Time: 21:01:10
(UTC+00:00)

A-11 Canister half - Pass Details

Date: 01 February 2020
Orbit: 1524 x 1684 km, 47.3° (Epoch: 26 February)

Event Time Altitude Azimuth Distance (km) Brightness Sun altitude
Rises 19:55:58 0° 288° (WNW) 4,701 12.6 -35.2°
Reaches altitude 10° 19:58:59 10° 288° (WNW) 3,731 11.8 -35.7°
Enters shadow 20:08:19 80° 213° (SSW) 1,606 8.9 -37.3°
